Weather History for Ft Lauderdale, FL

Change the Weather History Date:

Monday, January 7, 2013

  Actual Average Record
Temperature  
Mean Temperature 74 °F 69 °F  
Max Temperature 79 °F 76 °F 86 °F (2009)
Min Temperature 69 °F 61 °F 38 °F (1931)
Degree Days  
Heating Degree Days 0 2  
Month to date heating degree days 0 14  
Since 1 July heating degree days 22 46  
Cooling Degree Days 9 6  
Month to date cooling degree days 63 42  
Year to date cooling degree days 63 42  
Growing Degree Days 24 (Base 50)    
Moisture  
Dew Point 68 °F    
Average Humidity 82    
Maximum Humidity 97    
Minimum Humidity 67    
Precipitation  
Precipitation 0.17 in 0.08 in 2.15 in (1993)
Month to date precipitation 0.25 0.58  
Year to date precipitation 0.25 0.58  
Snow  
Snow 0.00 in - - ()
Month to date snowfall 0.0  
Since 1 July snowfall 0.0  
Snow Depth 0.00 in    
Sea Level Pressure  
Sea Level Pressure 30.12 in    
Wind  
Wind Speed 5 mph (NNE)    
Max Wind Speed 13 mph    
Max Gust Speed 16 mph    
Visibility 9 miles    
Events Rain    
T = Trace of Precipitation, MM = Missing Value Source: NWS Daily Summary

Daily Weather History Graph

Daily Weather History Graph

Search for Another Location

Airport:

Trip Planner

Search our weather history database for the weather conditions in past years. The results will help you decide how hot, cold, wet, or windy it might be!

Date:

Astronomy

Jan. 07, 2013 Rise Set
Actual Time 7:09 AM EST 5:45 PM EST
Civil Twilight 6:44 AM EST 6:10 PM EST
Nautical Twilight 6:15 AM EST 6:38 PM EST
Astronomical Twilight 5:47 AM EST 7:06 PM EST
Moon 2:37 AM EST (1/7) 1:50 PM EST (1/7)
Length of Visible Light 11h 25m
Length of Day
10h 35m
Waning Crescent, 23% of the Moon is Illuminated
Jan 7
Waning Crescent
Jan 11
New
Jan 18
First Quarter
Jan 26
Full
Feb 3
Last Quarter

Hourly Weather History & Observations

Time (EST) Temp. Dew Point Humidity Pressure Visibility Wind Dir Wind Speed Gust Speed Precip Events Conditions
12:53 AM 70.0 °F 68.0 °F 93% 30.11 in 10.0 mi NNW 3.5 mph - N/A   Clear
1:35 AM 71.6 °F 68.0 °F 88% 30.10 in 10.0 mi Calm Calm - N/A   Mostly Cloudy
1:45 AM 71.6 °F 68.0 °F 88% 30.09 in 10.0 mi NNW 3.5 mph - N/A   Scattered Clouds
1:53 AM 70.0 °F 68.0 °F 93% 30.09 in 10.0 mi Calm Calm - N/A   Partly Cloudy
2:53 AM 69.1 °F 68.0 °F 96% 30.09 in 10.0 mi NNW 3.5 mph - N/A   Scattered Clouds
3:53 AM 69.1 °F 66.9 °F 93% 30.08 in 10.0 mi NNW 5.8 mph - N/A   Partly Cloudy
4:53 AM 69.1 °F 66.9 °F 93% 30.08 in 10.0 mi Calm Calm - N/A   Scattered Clouds
5:53 AM 69.1 °F 68.0 °F 96% 30.10 in 10.0 mi Calm Calm - N/A   Mostly Cloudy
6:53 AM 69.1 °F 66.9 °F 93% 30.11 in 10.0 mi NNE 3.5 mph - N/A   Scattered Clouds
7:53 AM 70.0 °F 66.9 °F 90% 30.13 in 10.0 mi Calm Calm - N/A   Scattered Clouds
8:53 AM 71.1 °F 66.9 °F 87% 30.15 in 10.0 mi NNE 5.8 mph - 0.00 in Rain Light Rain
9:40 AM 69.8 °F 66.2 °F 88% 30.17 in 2.0 mi SE 4.6 mph - 0.05 in Rain Rain
9:43 AM 69.8 °F 66.2 °F 88% 30.17 in 1.8 mi SE 3.5 mph - 0.07 in Rain Heavy Rain
9:53 AM 70.0 °F 66.9 °F 90% 30.17 in 6.0 mi Calm Calm - 0.08 in Rain Light Rain
10:30 AM 71.6 °F 69.8 °F 94% 30.17 in 10.0 mi NNW 5.8 mph - 0.00 in   Overcast
10:53 AM 72.0 °F 71.1 °F 97% 30.16 in 10.0 mi North 3.5 mph - 0.00 in   Mostly Cloudy
11:26 AM 73.4 °F 69.8 °F 88% 30.14 in 10.0 mi North 6.9 mph - N/A   Overcast
11:53 AM 72.0 °F 69.1 °F 91% 30.14 in 10.0 mi NE 9.2 mph - N/A   Overcast
12:43 PM 71.6 °F 68.0 °F 88% 30.11 in 10.0 mi North 8.1 mph - 0.00 in   Mostly Cloudy
12:53 PM 72.0 °F 68.0 °F 87% 30.10 in 10.0 mi NNW 5.8 mph - 0.00 in   Mostly Cloudy
1:53 PM 75.0 °F 68.0 °F 79% 30.09 in 10.0 mi North 9.2 mph - N/A   Mostly Cloudy
2:53 PM 79.0 °F 66.9 °F 66% 30.07 in 10.0 mi NE 11.5 mph - N/A   Partly Cloudy
3:53 PM 77.0 °F 66.9 °F 71% 30.08 in 10.0 mi NE 9.2 mph - N/A   Partly Cloudy
4:53 PM 75.9 °F 64.0 °F 67% 30.09 in 10.0 mi NNE 8.1 mph - N/A   Partly Cloudy
5:53 PM 73.9 °F 66.9 °F 79% 30.10 in 10.0 mi NNE 10.4 mph - N/A   Scattered Clouds
6:53 PM 73.0 °F 68.0 °F 84% 30.12 in 10.0 mi North 5.8 mph - N/A   Scattered Clouds
7:53 PM 73.0 °F 68.0 °F 84% 30.13 in 10.0 mi NNE 4.6 mph - N/A   Clear
8:53 PM 73.0 °F 68.0 °F 84% 30.14 in 10.0 mi NE 4.6 mph - N/A   Mostly Cloudy
9:53 PM 72.0 °F 66.9 °F 84% 30.13 in 5.0 mi East 9.2 mph - 0.09 in Rain Light Rain
10:53 PM 73.0 °F 68.0 °F 84% 30.12 in 10.0 mi ENE 6.9 mph - 0.00 in   Mostly Cloudy
11:53 PM 73.0 °F 69.1 °F 87% 30.11 in 10.0 mi NE 4.6 mph - N/A   Mostly Cloudy